CW1492 Weather Reports


Display with metric or nautical units.
time (UTC)temp
F
wind
direction
speed
MPH
gust
MPH
rain 1hr
in
rain 24hr
in
rain mn
in
humidity
%
barometer
mb
20190320044909 28 12 1.0 4.0 0.00 0.00 0.00 57 1029.3
20190320043347 29 13 2.0 4.0 0.00 0.00 0.00 57 1029.3
20190320041851 29 8 3.0 4.0 0.00 0.00 0.00 52 1029.1
20190320040352 29 60 0.0 2.0 0.00 0.00 0.00 53 1029.1
20190320034906 29 60 2.0 3.0 0.00 0.00 0.00 55 1029.1
20190320033343 29 141 2.0 4.0 0.00 0.00 0.00 53 1029.2
20190320031829 29 7 0.0 3.0 0.00 0.00 0.00 53 1029.0
20190320030402 30 7 1.0 2.0 0.00 0.00 0.00 52 1029.0
20190320024857 29 7 3.0 3.0 0.00 0.00 0.00 51 1028.9
20190320023334 30 7 0.0 0.0 0.00 0.00 0.00 55 1028.8
20190320021830 30 7 3.0 3.0 0.00 0.00 0.00 52 1028.6
20190320020339 31 8 1.0 3.0 0.00 0.00 0.00 52 1028.5
20190320014835 31 8 2.0 3.0 0.00 0.00 0.00 50 1028.4
20190320013333 31 8 4.0 5.0 0.00 0.00 0.00 51 1028.4
20190320011829 31 19 3.0 4.0 0.00 0.00 0.00 53 1028.6
20190320010407 31 9 2.0 4.0 0.00 0.00 0.00 49 1028.6
20190320004828 32 27 3.0 4.0 0.00 0.00 0.00 48 1028.3
20190320003326 33 4 2.0 3.0 0.00 0.00 0.00 48 1028.2
20190320001842 34 212 0.0 3.0 0.00 0.00 0.00 40 1028.3
20190320000334 34 274 0.0 3.0 0.00 0.00 0.00 41 1028.0
20190319234829 35 274 1.0 2.0 0.00 0.00 0.00 39 1028.0
20190319233328 35 182 1.0 2.0 0.00 0.00 0.00 37 1028.1
20190319231842 35 165 1.0 7.0 0.00 0.00 0.00 37 1027.9
20190319230335 36 201 1.0 4.0 0.00 0.00 0.00 34 1027.8
20190319224830 37 217 3.0 6.0 0.00 0.00 0.00 35 1027.7
20190319223413 37 132 3.0 8.0 0.00 0.00 0.00 33 1027.6
20190319221835 38 170 2.0 8.0 0.00 0.00 0.00 34 1027.6
20190319220326 38 233 3.0 9.0 0.00 0.00 0.00 31 1027.4
20190319214842 38 200 4.0 10.0 0.00 0.00 0.00 28 1027.4
20190319213341 39 211 4.0 11.0 0.00 0.00 0.00 27 1027.2
20190319211836 38 201 4.0 10.0 0.00 0.00 0.00 30 1027.4
20190319210328 39 199 3.0 10.0 0.00 0.00 0.00 29 1027.3
20190319204911 39 242 6.0 11.0 0.00 0.00 0.00 28 1027.2
20190319203348 40 179 7.0 12.0 0.00 0.00 0.00 30 1027.1
20190319201837 39 219 5.0 10.0 0.00 0.00 0.00 30 1027.2
20190319200329 38 204 7.0 16.0 0.00 0.00 0.00 28 1027.3
20190319194904 38 62 4.0 10.0 0.00 0.00 0.00 28 1027.3
20190319193341 38 176 7.0 15.0 0.00 0.00 0.00 28 1027.4
20190319191837 38 200 7.0 12.0 0.00 0.00 0.00 27 1027.4
20190319190329 38 180 7.0 13.0 0.00 0.00 0.00 27 1027.4
20190319184824 38 143 6.0 12.0 0.00 0.00 0.00 31 1027.4
20190319183342 38 138 7.0 14.0 0.00 0.00 0.00 30 1027.7
20190319181835 38 322 5.0 12.0 0.00 0.00 0.00 30 1027.9
20190319180343 38 223 8.0 15.0 0.00 0.00 0.00 30 1027.8
20190319174838 37 175 9.0 14.0 0.00 0.00 0.00 30 1028.0
20190319173356 37 185 4.0 15.0 0.00 0.00 0.00 33 1028.3
20190319171830 37 203 5.0 10.0 0.00 0.00 0.00 32 1028.2
20190319170343 37 115 5.0 17.0 0.00 0.00 0.00 32 1028.2
20190319164857 37 220 6.0 10.0 0.00 0.00 0.00 35 1028.4
20190319163402 36 192 6.0 14.0 0.00 0.00 0.00 34 1028.3
20190319161828 35 213 3.0 10.0 0.00 0.00 0.00 36 1028.3
20190319160343 36 240 3.0 11.0 0.00 0.00 0.00 39 1028.2
20190319154838 35 97 6.0 12.0 0.00 0.00 0.00 35 1028.2
20190319153357 35 299 7.0 11.0 0.00 0.00 0.00 40 1028.3
20190319151830 34 301 4.0 8.0 0.00 0.00 0.00 42 1028.4
20190319150341 32 328 2.0 8.0 0.00 0.00 0.00 47 1028.4
20190319144835 33 313 6.0 8.0 0.00 0.00 0.00 50 1028.5
20190319143333 32 220 2.0 8.0 0.00 0.00 0.00 52 1028.6
20190319141848 32 211 3.0 7.0 0.00 0.00 0.00 55 1028.5
20190319140357 31 231 3.0 4.0 0.00 0.00 0.00 54 1028.6
20190319134850 31 251 1.0 3.0 0.00 0.00 0.00 57 1028.8
20190319133328 28 173 0.0 3.0 0.00 0.00 0.00 66 1028.6
20190319131823 26 173 2.0 4.0 0.00 0.00 0.00 67 1028.6
20190319130406 25 337 0.0 0.0 0.00 0.00 0.00 70 1028.3
20190319124840 25 337 0.0 0.0 0.00 0.00 0.00 70 1028.1
20190319123358 23 337 0.0 0.0 0.00 0.00 0.00 76 1028.2
20190319121852 23 337 0.0 0.0 0.00 0.00 0.00 75 1027.9
20190319120408 22 337 0.0 0.0 0.00 0.00 0.00 76 1027.8
20190319114902 22 337 0.0 0.0 0.00 0.00 0.00 76 1027.7
20190319113336 22 337 0.0 0.0 0.00 0.00 0.00 75 1027.6
20190319111822 23 337 0.0 0.0 0.00 0.00 0.00 72 1027.4
20190319110323 24 338 0.0 0.0 0.00 0.00 0.00 71 1027.3
20190319104839 25 338 0.0 4.0 0.00 0.00 0.00 70 1027.2
20190319103357 25 308 0.0 2.0 0.00 0.00 0.00 70 1027.0
20190319101830 25 308 0.0 0.0 0.00 0.00 0.00 71 1026.8
20190319100335 25 308 0.0 1.0 0.00 0.00 0.00 70 1026.7
20190319094827 25 308 1.0 2.0 0.00 0.00 0.00 71 1026.5
20190319093326 25 308 1.0 4.0 0.00 0.00 0.00 70 1026.5
20190319091841 27 39 0.0 2.0 0.00 0.00 0.00 67 1026.3
20190319090353 26 39 1.0 3.0 0.00 0.00 0.00 68 1026.1
20190319084827 26 39 2.0 3.0 0.00 0.00 0.00 69 1026.0
20190319083327 26 38 2.0 2.0 0.00 0.00 0.00 71 1026.0
20190319081823 26 38 1.0 2.0 0.00 0.00 0.00 69 1025.9
20190319080334 27 38 0.0 1.0 0.00 0.00 0.00 69 1025.8
20190319074846 27 38 1.0 3.0 0.00 0.00 0.00 67 1025.9
20190319073324 27 22 3.0 3.0 0.00 0.00 0.00 67 1025.9
20190319071900 28 114 2.0 2.0 0.00 0.00 0.00 64 1026.1
20190319070341 28 116 2.0 4.0 0.00 0.00 0.00 58 1026.2
20190319064828 28 43 2.0 3.0 0.00 0.00 0.00 56 1026.1
20190319063357 28 31 0.0 0.0 0.00 0.00 0.00 55 1026.0
20190319061823 28 31 0.0 0.0 0.00 0.00 0.00 54 1026.1
20190319060345 29 31 0.0 1.0 0.00 0.00 0.00 53 1026.1
20190319054836 29 31 1.0 3.0 0.00 0.00 0.00 52 1026.0
20190319053354 29 31 1.0 2.0 0.00 0.00 0.00 52 1025.9
20190319051829 28 31 2.0 3.0 0.00 0.00 0.00 48 1025.9
20190319050342 28 31 2.0 3.0 0.00 0.00 0.00 51 1025.9